Погода в Нижнем Пронге

Россия / Хабаровский край     52°51′21″N   141°12′05″E
темп.,
°C
ветер,
м/с
пор.,
м/с
влажн.,
%
обл.,
%
осадки,
мм/ч
давл.,
гПа
погр.,
м
18 января, вт
вт1801:00−16ссз6138659 0.0 1021282
04:00−14сз71588100 0.1 1021456
07:00−15сз91784100 0.1 1020419
10:00−15сз91890100 0.6 1022553
13:00−13ссз7158539 0.1 1023477
16:00−14сз713747 0.1 1023423
19:00−18зсз588199 0.0 1024102
22:00−19зсз468473 0.0 102460
19 января, ср
ср1901:00−21сз348842 0.0 102339
04:00−20зсз348485 0.0 102348
07:00−22зсз338625 0.0 102232
10:00−21сз238574 0.0 102342
13:00−15сз357694 0.0 1022240
16:00−16сз348862 0.0 102244
19:00−21зсз2392100 0.0 102228
22:00−17сз2483100 0.0 1022112
20 января, чт
чт2001:00−16сз2496100 0.3 1022169
04:00−16сз3590100 0.6 1022126
07:00
10:00−17сз248387 0.0 102474
13:00−13ссз3780100 0.0 1024299
16:00
19:00−19сз32915 0.0 102528
22:00−22сз229425 0.0 102612
21 января, пт
пт2101:00−22зсз22935 0.0 102611
04:00−23зсз11925 0.0 102610
07:00−24зсз11946 0.0 102610
10:00−22з11893 0.0 102616
13:00−17в11884 0.0 102568
16:00−20в11987 0.0 10259
19:00−24юз119843 0.0 10269
22:00−23ююз1194100 0.0 10259
22 января, сб
сб2201:00−23зюз119487 0.0 10259
04:00−23зюз119596 0.0 102410
07:00−23юз119683 0.0 10249
10:00−21юз119352 0.0 102413
13:00−16вюв118982 0.0 102487
16:00−18ююв119698 0.0 102411
19:00−21зюз219752 0.0 102410
22:00−23зюз229330 0.0 102410